Time,TemperatureF,DewpointF,PressureIn,WindDirection,WindDirectionDegrees,WindSpeedMPH,WindSpeedGustMPH,Humidity,HourlyPrecipIn,Conditions,Clouds,dailyrainin,SoftwareType,DateUTC
2013-03-06 00:02:00,33.0,26.0,29.98,NW,308,13.0,15.0,75,0.00,,,0.09,,2013-03-06 06:02:00,
2013-03-06 00:11:00,33.0,26.0,29.98,NW,308,13.0,15.0,75,0.00,,,0.09,,2013-03-06 06:11:00,
2013-03-06 00:22:00,33.0,26.0,29.98,NNW,334,4.0,17.0,75,0.00,,,0.09,,2013-03-06 06:22:00,
2013-03-06 00:32:00,33.0,26.0,29.98,West,267,9.0,16.0,76,0.00,,,0.09,,2013-03-06 06:32:00,
2013-03-06 00:42:00,33.0,26.0,29.98,West,267,9.0,16.0,76,0.00,,,0.09,,2013-03-06 06:42:00,
2013-03-06 00:52:00,33.0,26.0,29.98,West,267,10.0,13.0,76,0.00,,,0.09,,2013-03-06 06:52:00,
2013-03-06 01:01:00,33.0,26.0,29.98,West,267,10.0,13.0,76,0.00,,,0.09,,2013-03-06 07:01:00,
2013-03-06 01:11:00,33.0,26.0,29.98,West,267,10.0,13.0,76,0.00,,,0.09,,2013-03-06 07:11:00,
2013-03-06 01:22:00,33.0,26.0,29.98,West,267,10.0,13.0,76,0.00,,,0.09,,2013-03-06 07:22:00,
2013-03-06 01:52:00,33.0,27.0,30.02,NNW,332,5.0,12.0,77,0.00,,,0.09,,2013-03-06 07:52:00,
2013-03-06 02:01:00,32.0,26.0,30.03,West,268,9.0,15.0,78,0.00,,,0.09,,2013-03-06 08:01:00,
2013-03-06 02:11:00,32.0,26.0,30.03,West,268,9.0,15.0,78,0.00,,,0.09,,2013-03-06 08:11:00,
2013-03-06 02:21:00,32.0,26.0,30.03,West,259,11.0,12.0,77,0.00,,,0.09,,2013-03-06 08:21:00,
2013-03-06 02:32:00,32.0,26.0,30.04,NNW,329,6.0,17.0,78,0.00,,,0.09,,2013-03-06 08:32:00,
2013-03-06 02:42:00,32.0,26.0,30.04,NNW,329,6.0,17.0,78,0.00,,,0.09,,2013-03-06 08:42:00,
2013-03-06 02:52:00,32.0,26.0,30.04,West,260,6.0,20.0,78,0.00,,,0.09,,2013-03-06 08:52:00,
2013-03-06 03:01:00,32.0,26.0,30.05,NW,321,7.0,14.0,78,0.00,,,0.09,,2013-03-06 09:01:00,
2013-03-06 03:12:00,32.0,26.0,30.05,NW,321,7.0,14.0,78,0.00,,,0.09,,2013-03-06 09:12:00,
2013-03-06 03:21:00,32.0,26.0,30.05,WNW,290,5.0,13.0,78,0.00,,,0.09,,2013-03-06 09:21:00,
2013-03-06 03:32:00,32.0,26.0,30.06,NW,308,6.0,17.0,79,0.00,,,0.09,,2013-03-06 09:32:00,
2013-03-06 03:42:00,32.0,26.0,30.06,NW,308,6.0,17.0,79,0.00,,,0.09,,2013-03-06 09:42:00,
2013-03-06 03:51:00,32.0,26.0,30.06,WNW,293,9.0,15.0,79,0.00,,,0.09,,2013-03-06 09:51:00,
2013-03-06 04:01:00,32.0,27.0,30.08,NW,321,5.0,12.0,80,0.00,,,0.09,,2013-03-06 10:01:00,
2013-03-06 04:11:00,32.0,27.0,30.08,NW,321,5.0,12.0,80,0.00,,,0.09,,2013-03-06 10:11:00,
2013-03-06 04:21:00,32.0,27.0,30.08,WNW,298,10.0,13.0,80,0.00,,,0.09,,2013-03-06 10:21:00,
2013-03-06 04:32:00,32.0,27.0,30.10,NW,317,15.0,15.0,80,0.00,,,0.09,,2013-03-06 10:32:00,
2013-03-06 04:42:00,32.0,27.0,30.10,NW,317,15.0,15.0,80,0.00,,,0.09,,2013-03-06 10:42:00,
2013-03-06 04:51:00,32.0,27.0,30.10,NW,315,5.0,13.0,80,0.00,,,0.09,,2013-03-06 10:51:00,
2013-03-06 05:02:00,32.0,27.0,30.12,WNW,290,15.0,15.0,81,0.00,,,0.09,,2013-03-06 11:02:00,
2013-03-06 05:11:00,32.0,27.0,30.12,WNW,290,15.0,15.0,81,0.00,,,0.09,,2013-03-06 11:11:00,
2013-03-06 05:22:00,32.0,27.0,30.12,NNW,346,6.0,10.0,80,0.00,,,0.09,,2013-03-06 11:22:00,
2013-03-06 05:32:00,32.0,27.0,30.14,NNW,337,7.0,10.0,80,0.00,,,0.09,,2013-03-06 11:32:00,
2013-03-06 05:42:00,32.0,27.0,30.14,NNW,337,7.0,10.0,80,0.00,,,0.09,,2013-03-06 11:42:00,
2013-03-06 05:52:00,32.0,27.0,30.14,NW,319,7.0,12.0,80,0.00,,,0.09,,2013-03-06 11:52:00,
2013-03-06 06:02:00,32.0,27.0,30.16,NW,314,8.0,11.0,80,0.00,,,0.09,,2013-03-06 12:02:00,
2013-03-06 06:11:00,32.0,27.0,30.16,NW,314,8.0,11.0,80,0.00,,,0.09,,2013-03-06 12:11:00,
2013-03-06 06:21:00,32.0,27.0,30.16,NW,306,9.0,14.0,80,0.00,,,0.09,,2013-03-06 12:21:00,
2013-03-06 06:32:00,32.0,27.0,30.19,NW,324,13.0,15.0,80,0.00,,,0.09,,2013-03-06 12:32:00,
2013-03-06 06:42:00,32.0,27.0,30.19,NW,324,13.0,15.0,80,0.00,,,0.09,,2013-03-06 12:42:00,
2013-03-06 06:52:00,32.0,27.0,30.19,NW,313,12.0,12.0,80,0.00,,,0.09,,2013-03-06 12:52:00,
2013-03-06 07:02:00,32.0,27.0,30.21,NW,310,8.0,12.0,81,0.00,,,0.09,,2013-03-06 13:02:00,
2013-03-06 07:11:00,32.0,27.0,30.21,NW,310,8.0,12.0,81,0.00,,,0.09,,2013-03-06 13:11:00,
2013-03-06 07:22:00,32.0,27.0,30.21,NW,320,8.0,13.0,81,0.00,,,0.09,,2013-03-06 13:22:00,
2013-03-06 07:32:00,32.0,27.0,30.22,WNW,302,5.0,5.0,81,0.00,,,0.09,,2013-03-06 13:32:00,
2013-03-06 07:42:00,32.0,27.0,30.22,WNW,302,5.0,5.0,81,0.00,,,0.09,,2013-03-06 13:42:00,
2013-03-06 07:52:00,32.0,27.0,30.22,West,272,5.0,12.0,81,0.00,,,0.09,,2013-03-06 13:52:00,
2013-03-06 08:01:00,32.0,27.0,30.24,NW,310,5.0,12.0,81,0.00,,,0.09,,2013-03-06 14:01:00,
2013-03-06 08:11:00,32.0,27.0,30.24,NW,310,5.0,12.0,81,0.00,,,0.09,,2013-03-06 14:11:00,
2013-03-06 08:22:00,32.0,27.0,30.24,NW,304,9.0,9.0,80,0.00,,,0.09,,2013-03-06 14:22:00,
2013-03-06 08:32:00,32.0,26.0,30.26,NW,321,10.0,13.0,79,0.00,,,0.09,,2013-03-06 14:32:00,
2013-03-06 08:42:00,32.0,26.0,30.26,NW,321,10.0,13.0,79,0.00,,,0.09,,2013-03-06 14:42:00,
2013-03-06 08:52:00,32.0,26.0,30.26,NW,321,10.0,13.0,79,0.00,,,0.09,,2013-03-06 14:52:00,
2013-03-06 09:02:00,32.0,26.0,30.26,NW,321,10.0,13.0,79,0.00,,,0.09,,2013-03-06 15:02:00,
2013-03-06 09:11:00,32.0,26.0,30.26,NW,321,10.0,13.0,79,0.00,,,0.09,,2013-03-06 15:11:00,
2013-03-06 14:33:00,33.0,26.0,30.33,NW,320,9.0,9.0,75,0.00,,,0.04,,2013-03-06 20:33:00,
2013-03-06 14:43:00,33.0,26.0,30.33,NW,320,9.0,9.0,75,0.00,,,0.04,,2013-03-06 20:43:00,
2013-03-06 14:53:00,33.0,26.0,30.33,NNW,341,4.0,6.0,75,0.00,,,0.03,,2013-03-06 20:53:00,
2013-03-06 15:02:00,33.0,26.0,30.34,NNW,333,6.0,10.0,75,0.00,,,0.03,,2013-03-06 21:02:00,
2013-03-06 15:11:00,33.0,26.0,30.34,NNW,333,6.0,10.0,75,0.00,,,0.03,,2013-03-06 21:11:00,
2013-03-06 15:22:00,33.0,26.0,30.34,NW,319,3.0,5.0,74,0.00,,,0.02,,2013-03-06 21:22:00,
2013-03-06 15:32:00,34.0,27.0,30.35,NNW,338,3.0,10.0,74,0.00,,,0.02,,2013-03-06 21:32:00,
2013-03-06 15:42:00,34.0,27.0,30.35,NNW,338,3.0,10.0,74,0.00,,,0.02,,2013-03-06 21:42:00,
2013-03-06 15:51:00,34.0,26.0,30.35,NNW,346,4.0,6.0,73,0.00,,,0.02,,2013-03-06 21:51:00,
2013-03-06 16:01:00,34.0,26.0,30.35,NW,325,3.0,8.0,73,0.00,,,0.01,,2013-03-06 22:01:00,
2013-03-06 16:11:00,34.0,26.0,30.35,NW,325,3.0,8.0,73,0.00,,,0.01,,2013-03-06 22:11:00,
2013-03-06 16:21:00,34.0,26.0,30.35,NW,307,2.0,4.0,73,0.00,,,0.01,,2013-03-06 22:21:00,
2013-03-06 16:32:00,34.0,27.0,30.35,WNW,296,3.0,8.0,74,0.00,,,0.01,,2013-03-06 22:32:00,
2013-03-06 16:41:00,34.0,27.0,30.35,WNW,296,3.0,8.0,74,0.00,,,0.01,,2013-03-06 22:41:00,
2013-03-06 16:51:00,33.0,26.0,30.35,NW,319,3.0,3.0,74,0.00,,,0.01,,2013-03-06 22:51:00,
2013-03-06 17:01:00,33.0,26.0,30.36,NNW,332,3.0,9.0,74,0.00,,,0.01,,2013-03-06 23:01:00,
2013-03-06 17:11:00,33.0,26.0,30.36,NNW,332,3.0,9.0,74,0.00,,,0.01,,2013-03-06 23:11:00,
2013-03-06 17:21:00,33.0,25.0,30.36,NNW,327,5.0,10.0,73,0.00,,,0.01,,2013-03-06 23:21:00,
2013-03-06 17:32:00,33.0,26.0,30.37,NW,308,5.0,7.0,74,0.00,,,0.01,,2013-03-06 23:32:00,
2013-03-06 17:42:00,33.0,26.0,30.37,NW,308,5.0,7.0,74,0.00,,,0.01,,2013-03-06 23:42:00,
2013-03-06 17:52:00,33.0,26.0,30.37,NW,319,5.0,6.0,74,0.00,,,0.00,,2013-03-06 23:52:00,
2013-03-06 18:01:00,33.0,26.0,30.38,NW,309,1.0,3.0,75,0.00,,,0.00,,2013-03-07 00:01:00,
2013-03-06 18:11:00,33.0,26.0,30.38,NW,309,1.0,3.0,75,0.00,,,0.00,,2013-03-07 00:11:00,
2013-03-06 18:21:00,33.0,26.0,30.38,NW,323,5.0,6.0,75,0.00,,,0.00,,2013-03-07 00:21:00,
2013-03-06 18:32:00,32.0,25.0,30.39,NNE,19,3.0,5.0,75,0.00,,,0.00,,2013-03-07 00:32:00,
2013-03-06 18:41:00,32.0,25.0,30.39,NNE,19,3.0,5.0,75,0.00,,,0.00,,2013-03-07 00:41:00,
2013-03-06 18:52:00,32.0,25.0,30.39,NNW,331,5.0,6.0,75,0.00,,,0.00,,2013-03-07 00:52:00,
2013-03-06 19:01:00,32.0,25.0,30.39,NNE,32,1.0,3.0,75,0.00,,,0.00,,2013-03-07 01:01:00,
2013-03-06 19:11:00,32.0,25.0,30.39,NNE,32,1.0,3.0,75,0.00,,,0.00,,2013-03-07 01:11:00,
2013-03-06 19:21:00,32.0,25.0,30.39,North,9,3.0,4.0,74,0.00,,,0.00,,2013-03-07 01:21:00,
2013-03-06 19:31:00,32.0,25.0,30.39,North,5,8.0,8.0,74,0.00,,,0.00,,2013-03-07 01:31:00,
2013-03-06 19:41:00,32.0,25.0,30.39,North,5,8.0,8.0,74,0.00,,,0.00,,2013-03-07 01:41:00,
2013-03-06 19:51:00,32.0,25.0,30.39,NW,324,6.0,6.0,74,0.00,,,0.00,,2013-03-07 01:51:00,
2013-03-06 20:01:00,32.0,25.0,30.39,NW,324,1.0,4.0,75,0.00,,,0.00,,2013-03-07 02:01:00,
2013-03-06 20:11:00,32.0,25.0,30.39,NW,324,1.0,4.0,75,0.00,,,0.00,,2013-03-07 02:11:00,
2013-03-06 20:21:00,32.0,25.0,30.39,NNW,336,3.0,4.0,75,0.00,,,0.00,,2013-03-07 02:21:00,
2013-03-06 20:32:00,32.0,25.0,30.39,North,5,3.0,3.0,75,0.00,,,0.00,,2013-03-07 02:32:00,
2013-03-06 20:41:00,32.0,25.0,30.39,North,5,3.0,3.0,75,0.00,,,0.00,,2013-03-07 02:41:00,
2013-03-06 20:51:00,32.0,25.0,30.39,North,5,3.0,3.0,75,0.00,,,0.00,,2013-03-07 02:51:00,
2013-03-06 21:02:00,32.0,25.0,30.39,NNW,343,3.0,3.0,75,0.00,,,0.00,,2013-03-07 03:02:00,
2013-03-06 21:11:00,32.0,25.0,30.39,NNW,343,3.0,3.0,75,0.00,,,0.00,,2013-03-07 03:11:00,
2013-03-06 21:21:00,32.0,25.0,30.39,NNW,343,3.0,3.0,75,0.00,,,0.00,,2013-03-07 03:21:00,
2013-03-06 21:32:00,31.0,24.0,30.39,NNW,341,2.0,2.0,75,0.00,,,0.00,,2013-03-07 03:32:00,
2013-03-06 21:42:00,31.0,24.0,30.39,NNW,341,2.0,2.0,75,0.00,,,0.00,,2013-03-07 03:42:00,
2013-03-06 21:52:00,31.0,24.0,30.39,NNW,341,2.0,2.0,75,0.00,,,0.00,,2013-03-07 03:52:00,
2013-03-06 22:01:00,31.0,24.0,30.40,NNW,327,3.0,3.0,75,0.00,,,0.00,,2013-03-07 04:01:00,
2013-03-06 22:11:00,31.0,24.0,30.40,NNW,327,3.0,3.0,75,0.00,,,0.00,,2013-03-07 04:11:00,
2013-03-06 22:22:00,31.0,24.0,30.40,North,5,3.0,3.0,75,0.00,,,0.00,,2013-03-07 04:22:00,
2013-03-06 22:32:00,31.0,24.0,30.40,North,355,5.0,6.0,75,0.00,,,0.00,,2013-03-07 04:32:00,
2013-03-06 22:42:00,31.0,24.0,30.40,North,355,5.0,6.0,75,0.00,,,0.00,,2013-03-07 04:42:00,
2013-03-06 22:51:00,31.0,23.0,30.40,NNW,344,1.0,3.0,73,0.00,,,0.00,,2013-03-07 04:51:00,
2013-03-06 23:02:00,31.0,24.0,30.39,NW,308,1.0,1.0,74,0.00,,,0.00,,2013-03-07 05:02:00,
2013-03-06 23:12:00,31.0,24.0,30.39,NW,308,1.0,1.0,74,0.00,,,0.00,,2013-03-07 05:12:00,
2013-03-06 23:22:00,31.0,24.0,30.39,NW,308,1.0,3.0,75,0.00,,,0.00,,2013-03-07 05:22:00,
2013-03-06 23:32:00,31.0,24.0,30.39,NW,308,3.0,3.0,76,0.00,,,0.00,,2013-03-07 05:32:00,
2013-03-06 23:42:00,31.0,24.0,30.39,NW,308,3.0,3.0,76,0.00,,,0.00,,2013-03-07 05:42:00,
2013-03-06 23:52:00,31.0,24.0,30.39,NW,308,1.0,3.0,76,0.00,,,0.00,,2013-03-07 05:52:00,